Tracking 30995 objects as of 5-Jul-2025
HD Live streaming from Space Station
objects crossing your sky now

STARLINK-32275

Track STARLINK-32275 now!
10-day predictions
STARLINK-32275 is classified as:


NORAD ID: 60360
Int'l Code: 2024-138F
Perigee: 481.5 km
Apogee: 483.2 km
Inclination: 53.2 °
Period: 94.1 minutes
Semi major axis: 6853 km
RCS: Unknown
Launch date: August 4, 2024
Source: United States (US)
Launch site: AIR FORCE WESTERN TEST RANGE (AFWTR)
Your satellite tracking list
Your tracking list is empty




NASA's NSSDC Master Catalog

Two Line Element Set (TLE):
1 60360U 24138F   25185.86034180 -.00000750  00000-0 -13218-4 0  9997
2 60360  53.1622  20.7604 0001263  90.5244 269.5902 15.30191479 52685
Source of the keplerian elements: AFSPC